TimeMDT,TemperatureF,Dew PointF,Humidity,Sea Level PressureIn,VisibilityMPH,Wind Direction,Wind SpeedMPH,Gust SpeedMPH,PrecipitationIn,Events,Conditions,WindDirDegrees,DateUTC
12:53 AM,32.0,25.0,75,29.66,10.0,WSW,10.4,-,N/A,,Clear,250,2013-04-08 06:53:00
1:53 AM,32.0,25.0,75,29.65,10.0,Calm,Calm,-,N/A,,Partly Cloudy,0,2013-04-08 07:53:00
2:53 AM,28.0,23.0,81,29.63,10.0,Calm,Calm,-,N/A,,Clear,0,2013-04-08 08:53:00
3:53 AM,28.0,24.1,85,29.60,10.0,Calm,Calm,-,N/A,,Mostly Cloudy,0,2013-04-08 09:53:00
4:53 AM,33.1,26.1,75,29.57,10.0,SW,4.6,-,N/A,,Overcast,230,2013-04-08 10:53:00
5:53 AM,30.9,25.0,79,29.60,10.0,North,4.6,-,N/A,,Overcast,10,2013-04-08 11:53:00
6:53 AM,32.0,25.0,75,29.57,10.0,East,6.9,-,N/A,,Scattered Clouds,100,2013-04-08 12:53:00
7:53 AM,35.1,27.0,72,29.54,10.0,NE,10.4,-,N/A,,Mostly Cloudy,40,2013-04-08 13:53:00
8:53 AM,39.0,26.1,60,29.52,10.0,ENE,13.8,-,N/A,,Clear,70,2013-04-08 14:53:00
9:53 AM,44.1,26.1,49,29.49,10.0,ENE,8.1,-,N/A,,Clear,70,2013-04-08 15:53:00
10:53 AM,51.1,23.0,33,29.44,10.0,East,10.4,19.6,N/A,,Mostly Cloudy,90,2013-04-08 16:53:00
11:53 AM,53.1,25.0,34,29.42,10.0,ENE,20.7,28.8,N/A,,Partly Cloudy,60,2013-04-08 17:53:00
12:53 PM,45.0,24.1,44,29.44,10.0,NE,31.1,40.3,N/A,,Mostly Cloudy,50,2013-04-08 18:53:00
1:53 PM,43.0,24.1,47,29.45,10.0,NNE,27.6,43.7,N/A,,Overcast,30,2013-04-08 19:53:00
2:53 PM,39.0,24.1,55,29.51,10.0,NNE,29.9,40.3,N/A,,Overcast,30,2013-04-08 20:53:00
3:53 PM,33.1,21.9,64,29.55,10.0,NNE,28.8,42.6,N/A,,Overcast,30,2013-04-08 21:53:00
4:53 PM,30.0,19.9,66,29.60,10.0,NNE,17.3,31.1,N/A,,Overcast,30,2013-04-08 22:53:00
5:17 PM,28.4,21.2,74,29.62,1.8,North,16.1,31.1,0.00,Snow,Light Snow,10,2013-04-08 23:17:00
5:29 PM,26.6,21.2,80,29.61,2.5,North,13.8,27.6,0.00,Snow,Light Snow,350,2013-04-08 23:29:00
5:37 PM,26.6,21.2,80,29.62,4.0,North,20.7,25.3,0.00,Snow,Light Snow,10,2013-04-08 23:37:00
5:53 PM,26.1,19.0,75,29.67,10.0,NE,11.5,21.9,0.00,,Overcast,40,2013-04-08 23:53:00
6:53 PM,23.0,17.1,78,29.70,4.0,NNE,12.7,26.5,0.00,Snow,Light Snow,30,2013-04-09 00:53:00
7:53 PM,19.9,12.9,74,29.73,8.0,NNE,25.3,32.2,0.00,,Overcast,30,2013-04-09 01:53:00
8:24 PM,17.6,12.2,79,29.70,1.8,NNE,21.9,31.1,0.00,Snow,Light Snow,30,2013-04-09 02:24:00
8:34 PM,17.6,12.2,79,29.71,0.8,NE,26.5,34.5,0.00,Snow,Light Snow,40,2013-04-09 02:34:00
8:48 PM,17.6,12.2,79,29.70,0.5,NNE,20.7,29.9,0.00,Fog-Snow,Snow,30,2013-04-09 02:48:00
8:53 PM,17.1,12.9,84,29.76,0.8,NNE,17.3,28.8,0.00,Snow,Light Snow,30,2013-04-09 02:53:00
9:04 PM,17.6,12.2,79,29.72,0.5,NNE,15.0,26.5,0.01,Fog-Snow,Snow,30,2013-04-09 03:04:00
9:18 PM,15.8,12.2,86,29.72,1.0,NNE,16.1,25.3,0.02,Snow,Light Snow,20,2013-04-09 03:18:00
9:27 PM,15.8,12.2,86,29.73,1.5,NNE,13.8,24.2,0.02,Snow,Light Snow,30,2013-04-09 03:27:00
9:53 PM,14.0,10.0,84,29.79,0.5,NNE,21.9,32.2,0.02,Fog-Snow,Snow,30,2013-04-09 03:53:00
10:03 PM,14.0,10.4,86,29.76,0.5,NNE,20.7,32.2,0.00,Fog-Snow,Snow,30,2013-04-09 04:03:00
10:33 PM,14.0,10.4,86,29.77,1.0,NNE,24.2,32.2,0.01,Snow,Light Snow,30,2013-04-09 04:33:00
10:43 PM,12.2,8.6,85,29.77,0.5,NNE,26.5,35.7,0.01,Fog-Snow,Snow,30,2013-04-09 04:43:00
10:53 PM,12.9,9.0,84,29.79,0.5,NNE,26.5,32.2,0.02,Fog,Light Freezing Fog,30,2013-04-09 04:53:00
11:12 PM,12.2,8.6,85,29.81,0.5,North,17.3,31.1,0.01,Fog,Light Freezing Fog,10,2013-04-09 05:12:00
11:53 PM,10.9,7.0,84,29.84,0.5,NNE,24.2,32.2,0.04,Fog,Light Freezing Fog,20,2013-04-09 05:53:00